Location: Newark
(34.6283°N, 36.0776°E)
Time: 14:13:01
(UTC+00:00)

Courier 1B - Visible Passes

Search period start: 17 September 2019 00:00
Search period end: 27 September 2019 00:00
Orbit: 962 x 1209 km, 28.3° (Epoch: 16 September)

Date Brightness Start Highest point End Pass type
(mag) Time Alt. Az. Time Alt. Az. Time Alt. Az.
18 Sep 9.6 02:45:12 10° SSW 02:49:59 20° SSE 02:54:58 10° ESE visible
19 Sep 9.7 01:52:54 10° S 01:56:26 15° SSE 02:00:02 10° ESE visible
20 Sep 9.1 02:50:19 10° SW 02:56:02 30° SSE 03:02:04 10° E visible
21 Sep 9.2 01:57:38 11° SSW 02:02:27 23° SSE 02:07:45 10° ESE visible
22 Sep 9.3 01:07:26 17° SSE 01:08:54 18° SSE 01:13:13 10° ESE visible
22 Sep 8.6 02:56:03 10° SW 03:02:13 39° SSE 03:08:43 10° E visible
23 Sep 9.9 00:17:13 11° SE 00:17:13 11° SE 00:18:09 10° SE visible
23 Sep 8.7 02:04:07 16° SW 02:08:34 33° SSE 02:14:39 10° E visible
24 Sep 8.8 01:13:51 26° S 01:15:00 27° SSE 01:20:30 10° ESE visible
25 Sep 9.4 00:23:34 18° SE 00:23:34 18° SE 00:26:16 10° ESE visible
25 Sep 8.3 02:10:28 19° SW 02:14:48 43° SSE 02:21:13 10° E visible
26 Sep 8.3 01:20:10 35° S 01:21:11 37° SSE 01:27:15 10° E visible
